Retour au catalogue

TEMISAT

ActifSciencePO
NORAD 22783·PAYLOAD·🇮🇹 Italy

Lancé Aug 31, 1993 depuis Plesetsk Cosmodrome

Loading…

Prochains Passages (prochaines 24 heures)

TLE

FraisSource: Space-Track

Époque: Sep 14, 2026, 08:21 UTC

1 22783U 93055B   26257.34811997  .00000026  00000-0  99453-5 0  9991
2 22783  82.5495 227.1918 0021957 321.4921  38.4671 13.83900398668040

Suivez TEMISAT en temps réel avec AllMySat

Download on the App Store